TimeEDT,TemperatureF,Dew PointF,Humidity,Sea Level PressureIn,VisibilityMPH,Wind Direction,Wind SpeedMPH,Gust SpeedMPH,PrecipitationIn,Events,Conditions,WindDirDegrees,DateUTC
12:15 AM,68.2,54.1,61,29.90,10.0,North,6.9,-,N/A,,Scattered Clouds,10,2013-06-14 04:15:00
12:35 AM,68.0,54.5,62,29.90,10.0,North,6.9,-,N/A,,Overcast,360,2013-06-14 04:35:00
12:55 AM,68.0,54.3,62,29.90,10.0,North,6.9,-,N/A,,Scattered Clouds,10,2013-06-14 04:55:00
1:15 AM,66.6,54.5,65,29.91,10.0,North,4.6,-,N/A,,Clear,10,2013-06-14 05:15:00
1:35 AM,66.2,54.5,66,29.91,10.0,North,4.6,-,N/A,,Clear,360,2013-06-14 05:35:00
1:55 AM,65.7,54.3,67,29.91,10.0,NNW,4.6,-,N/A,,Clear,340,2013-06-14 05:55:00
2:15 AM,64.6,54.1,69,29.91,10.0,NW,4.6,-,N/A,,Scattered Clouds,320,2013-06-14 06:15:00
2:35 AM,64.2,53.4,68,29.91,10.0,NW,5.8,-,N/A,,Scattered Clouds,320,2013-06-14 06:35:00
2:55 AM,64.0,52.9,67,29.91,10.0,NW,3.5,-,N/A,,Clear,310,2013-06-14 06:55:00
3:15 AM,63.3,53.6,71,29.91,10.0,NW,5.8,-,N/A,,Scattered Clouds,310,2013-06-14 07:15:00
3:35 AM,62.6,54.1,74,29.91,10.0,NW,3.5,-,N/A,,Clear,320,2013-06-14 07:35:00
3:55 AM,61.9,54.1,76,29.91,10.0,NW,5.8,-,N/A,,Clear,310,2013-06-14 07:55:00
4:15 AM,61.3,54.3,78,29.91,10.0,NW,4.6,-,N/A,,Clear,320,2013-06-14 08:15:00
4:35 AM,61.2,54.3,78,29.91,10.0,NW,4.6,-,N/A,,Clear,310,2013-06-14 08:35:00
4:55 AM,61.0,54.1,78,29.92,10.0,NW,5.8,-,N/A,,Clear,320,2013-06-14 08:55:00
5:15 AM,60.8,54.1,79,29.92,10.0,NW,4.6,-,N/A,,Scattered Clouds,320,2013-06-14 09:15:00
5:35 AM,61.2,54.1,78,29.92,10.0,NW,4.6,-,N/A,,Clear,310,2013-06-14 09:35:00
5:55 AM,60.4,53.8,79,29.92,10.0,NW,4.6,-,N/A,,Clear,310,2013-06-14 09:55:00
6:15 AM,60.4,54.0,79,29.93,10.0,NW,5.8,-,N/A,,Clear,310,2013-06-14 10:15:00
6:35 AM,61.0,54.1,78,29.95,10.0,NW,5.8,-,N/A,,Clear,320,2013-06-14 10:35:00
6:55 AM,61.9,54.5,77,29.96,10.0,NNW,8.1,-,N/A,,Clear,330,2013-06-14 10:55:00
7:15 AM,63.1,54.9,74,29.96,10.0,NNW,5.8,-,N/A,,Clear,330,2013-06-14 11:15:00
7:35 AM,64.8,55.0,71,29.96,10.0,NNW,8.1,-,N/A,,Clear,340,2013-06-14 11:35:00
7:55 AM,66.0,54.7,67,29.97,10.0,NNW,10.4,-,N/A,,Clear,340,2013-06-14 11:55:00
8:15 AM,66.9,54.7,65,29.98,10.0,NNW,10.4,-,N/A,,Clear,340,2013-06-14 12:15:00
8:35 AM,67.8,54.5,62,29.99,10.0,NNW,10.4,-,N/A,,Clear,340,2013-06-14 12:35:00
8:55 AM,68.7,54.5,60,29.99,10.0,NNW,8.1,-,N/A,,Clear,340,2013-06-14 12:55:00
9:15 AM,70.0,54.9,59,30.00,10.0,NNW,9.2,-,N/A,,Clear,330,2013-06-14 13:15:00
9:35 AM,70.7,55.0,58,30.01,10.0,NNW,8.1,-,N/A,,Clear,330,2013-06-14 13:35:00
9:55 AM,71.2,54.7,56,30.01,10.0,NNW,12.7,-,N/A,,Clear,330,2013-06-14 13:55:00
10:15 AM,71.8,54.3,54,30.02,10.0,NNW,12.7,18.4,N/A,,Clear,340,2013-06-14 14:15:00
10:35 AM,72.5,54.5,53,30.02,10.0,North,10.4,19.6,N/A,,Scattered Clouds,10,2013-06-14 14:35:00
10:55 AM,72.7,54.1,52,30.02,10.0,North,12.7,16.1,N/A,,Mostly Cloudy,350,2013-06-14 14:55:00
11:15 AM,72.9,54.5,52,30.03,10.0,NNE,13.8,20.7,N/A,,Mostly Cloudy,20,2013-06-14 15:15:00
11:35 AM,73.9,54.1,50,30.03,10.0,NNW,11.5,-,N/A,,Mostly Cloudy,330,2013-06-14 15:35:00
11:55 AM,73.4,54.1,51,30.03,10.0,NNW,9.2,18.4,N/A,,Mostly Cloudy,340,2013-06-14 15:55:00
12:15 PM,73.6,53.4,49,30.04,10.0,North,10.4,19.6,N/A,,Mostly Cloudy,350,2013-06-14 16:15:00
12:35 PM,74.1,52.7,47,30.04,10.0,NNW,11.5,17.3,N/A,,Mostly Cloudy,330,2013-06-14 16:35:00
12:55 PM,75.2,52.5,45,30.04,10.0,NNW,16.1,21.9,N/A,,Mostly Cloudy,340,2013-06-14 16:55:00
1:15 PM,75.0,51.4,44,30.04,10.0,NNW,9.2,16.1,N/A,,Mostly Cloudy,340,2013-06-14 17:15:00
1:35 PM,75.4,51.1,42,30.04,10.0,NNW,12.7,19.6,N/A,,Mostly Cloudy,340,2013-06-14 17:35:00
1:55 PM,75.7,51.1,42,30.04,10.0,North,12.7,18.4,N/A,,Overcast,360,2013-06-14 17:55:00
2:15 PM,75.4,51.8,44,30.03,10.0,North,12.7,16.1,N/A,,Mostly Cloudy,350,2013-06-14 18:15:00
2:35 PM,75.6,50.7,42,30.02,10.0,NNW,6.9,20.7,N/A,,Mostly Cloudy,330,2013-06-14 18:35:00
2:55 PM,76.6,50.7,40,30.02,10.0,NNW,11.5,16.1,N/A,,Scattered Clouds,340,2013-06-14 18:55:00
3:15 PM,77.0,51.3,40,30.02,10.0,NNW,9.2,-,N/A,,Mostly Cloudy,330,2013-06-14 19:15:00
3:35 PM,77.7,51.3,40,30.02,10.0,North,11.5,-,N/A,,Scattered Clouds,10,2013-06-14 19:35:00
3:55 PM,77.4,50.7,39,30.01,10.0,NNW,9.2,-,N/A,,Mostly Cloudy,340,2013-06-14 19:55:00
4:15 PM,77.2,50.0,38,30.01,10.0,North,10.4,-,N/A,,Mostly Cloudy,10,2013-06-14 20:15:00
4:35 PM,77.9,50.2,38,30.01,10.0,NNW,9.2,17.3,N/A,,Mostly Cloudy,340,2013-06-14 20:35:00
4:55 PM,78.6,50.0,37,30.01,10.0,NNW,8.1,17.3,N/A,,Mostly Cloudy,340,2013-06-14 20:55:00
5:15 PM,78.6,49.5,36,30.02,10.0,North,8.1,16.1,N/A,,Mostly Cloudy,350,2013-06-14 21:15:00
5:35 PM,77.5,50.2,38,30.03,10.0,NNW,9.2,-,N/A,,Mostly Cloudy,330,2013-06-14 21:35:00
5:55 PM,75.7,49.8,40,30.02,10.0,NNW,5.8,-,N/A,,Scattered Clouds,340,2013-06-14 21:55:00
6:15 PM,77.4,49.8,38,30.02,10.0,North,6.9,-,N/A,,Clear,350,2013-06-14 22:15:00
6:35 PM,77.2,49.6,38,30.02,10.0,North,8.1,-,N/A,,Clear,10,2013-06-14 22:35:00
6:55 PM,75.7,50.5,41,30.02,10.0,North,5.8,-,N/A,,Clear,360,2013-06-14 22:55:00
7:15 PM,76.3,51.3,41,30.02,10.0,NNW,6.9,-,N/A,,Clear,340,2013-06-14 23:15:00
7:35 PM,76.1,51.1,41,30.02,10.0,North,8.1,-,N/A,,Clear,10,2013-06-14 23:35:00
7:55 PM,75.4,51.4,43,30.02,10.0,North,6.9,-,N/A,,Clear,10,2013-06-14 23:55:00
8:15 PM,74.8,51.1,43,30.03,10.0,NNW,8.1,-,N/A,,Clear,340,2013-06-15 00:15:00
8:35 PM,73.8,51.6,46,30.03,10.0,NNW,5.8,-,N/A,,Clear,330,2013-06-15 00:35:00
8:55 PM,72.5,52.2,49,30.04,10.0,NNW,6.9,-,N/A,,Clear,330,2013-06-15 00:55:00
9:15 PM,71.4,52.0,50,30.04,10.0,NNW,5.8,-,N/A,,Clear,340,2013-06-15 01:15:00
9:35 PM,70.9,52.0,51,30.05,10.0,North,4.6,-,N/A,,Clear,360,2013-06-15 01:35:00
9:55 PM,70.0,52.3,53,30.05,10.0,NNE,6.9,-,N/A,,Clear,20,2013-06-15 01:55:00
10:15 PM,67.8,53.2,60,30.06,10.0,NNE,6.9,-,N/A,,Clear,30,2013-06-15 02:15:00
10:35 PM,65.7,53.8,65,30.06,10.0,NNE,5.8,-,N/A,,Clear,30,2013-06-15 02:35:00
10:55 PM,65.3,54.1,67,30.07,10.0,NE,5.8,-,N/A,,Clear,50,2013-06-15 02:55:00
11:15 PM,64.8,54.5,69,30.07,10.0,NE,6.9,-,N/A,,Clear,50,2013-06-15 03:15:00
11:35 PM,64.9,54.1,68,30.06,10.0,ENE,5.8,-,N/A,,Clear,60,2013-06-15 03:35:00
11:55 PM,64.9,54.0,68,30.07,10.0,ENE,4.6,-,N/A,,Clear,60,2013-06-15 03:55:00